GFSNE_850_temp_273.txt.gz
Temp
13 12 12 12 11 10 10 9 8 8 8 9 9 9 10 10 10 10 10 10 10 10 11 11 11 12 11 11 11 11 10 10 10 10 10 9 9 8
12 11 11 10 10 10 10 9 7 7 7 8 8 8 9 10 10 10 10 9 10 10 10 10 10 10 10 11 10 10 10 10 10 10 9 9 8 8
10 9 9 9 9 9 9 8 7 6 6 7 7 7 8 8 9 9 9 9 10 9 10 10 10 10 10 10 10 10 10 10 10 9 9 9 8 8
8 7 7 7 7 7 7 7 6 6 5 6 7 7 7 8 8 8 8 8 9 9 9 10 10 9 9 9 9 9 9 9 9 9 9 9 9 8
6 5 5 6 6 6 6 6 5 5 5 4 4 5 5 6 6 7 7 7 7 7 7 8 8 9 9 9 9 9 9 9 9 9 9 8 8 9
3 3 3 5 5 5 4 4 4 3 3 3 2 2 3 3 4 5 7 6 6 6 7 7 7 8 8 8 8 8 9 9 9 9 9 8 8 8
2 2 2 2 3 2 2 1 1 1 1 2 2 2 3 3 2 2 2 5 6 4 4 5 5 6 6 6 6 7 8 8 8 8 8 8 7 7
1 1 1 1 1 0 0 0 -2 -3 -3 -3 -2 -2 -1 -2 -1 -1 -2 -2 -0 2 1 5 2 3 4 4 5 5 6 7 7 8 7 8 8 7
0 0 -0 -1 -1 -1 -1 -1 -1 -3 -4 -4 -4 -4 -3 -3 -4 -3 -3 -2 -2 -1 -1 2 1 2 3 3 4 5 5 5 6 7 8 8 8 7
-2 -3 -3 -3 -5 -5 -5 -5 -5 -5 -5 -5 -5 -4 -5 -4 -4 -4 -4 -3 -3 -2 -1 -1 -1 -0 1 3 3 4 4 4 5 5 6 7 7 6
-3 -4 -5 -5 -6 -6 -7 -7 -6 -6 -6 -5 -5 -5 -5 -5 -5 -4 -4 -3 -3 -2 -2 -1 -0 -0 0 1 2 1 1 1 2 2 3 3 3 3
-4 -5 -5 -6 -6 -6 -7 -8 -7 -7 -7 -6 -6 -6 -5 -5 -4 -4 -4 -3 -3 -3 -2 -2 -1 -2 -1 0 0 0 1 1 1 1 1 1 1 1
-7 -6 -6 -7 -7 -7 -7 -8 -8 -8 -7 -7 -6 -6 -6 -5 -5 -5 -4 -4 -4 -3 -2 -2 -2 -2 -1 -1 -0 -0 -0 -0 0 0 0 0 0 0
-8 -8 -8 -8 -8 -8 -8 -8 -8 -8 -8 -7 -7 -6 -5 -5 -5 -5 -5 -4 -4 -4 -3 -3 -2 -2 -2 -2 -2 -1 -1 -1 -1 -1 -1 -0 -0 -0
-9 -9 -9 -9 -9 -9 -9 -9 -9 -9 -9 -9 -8 -6 -6 -5 -5 -5 -5 -4 -4 -4 -3 -3 -3 -3 -2 -2 -2 -2 -2 -2 -3 -1 -1 -1 -0 -0
-9 -9 -9 -10 -10 -10 -10 -9 -9 -10 -10 -9 -9 -7 -6 -6 -6 -5 -5 -5 -4 -4 -3 -3 -3 -3 -3 -3 -3 -3 -3 -4 -4 -4 -3 -3 -3 -3
-9 -9 -9 -10 -10 -10 -10 -10 -12 -12 -11 -10 -8 -7 -7 -6 -6 -5 -5 -5 -4 -4 -4 -3 -3 -3 -3 -3 -3 -3 -4 -4 -4 -4 -4 -4 -3 -2
-10 -10 -11 -11 -13 -14 -14 -11 -11 -11 -11 -10 -8 -7 -7 -6 -6 -6 -5 -5 -5 -5 -4 -4 -4 -4 -4 -3 -4 -4 -5 -5 -5 -4 -4 -4 -3 -2
-10 -11 -12 -13 -15 -15 -15 -15 -13 -11 -10 -10 -9 -8 -7 -6 -6 -6 -6 -5 -5 -5 -5 -4 -4 -4 -4 -4 -4 -4 -5 -4 -5 -4 -4 -4 -3 -3
-12 -13 -13 -14 -15 -15 -14 -14 -12 -11 -10 -9 -9 -8 -8 -7 -6 -6 -6 -5 -5 -5 -5 -5 -4 -4 -4 -5 -5 -5 -5 -5 -5 -5 -4 -4 -4 -4
-12 -12 -13 -13 -13 -13 -12 -12 -12 -11 -10 -9 -9 -8 -8 -8 -7 -7 -6 -6 -6 -5 -5 -5 -5 -5 -5 -5 -5 -5 -5 -5 -4 -5 -5 -5 -5 -5
-12 -12 -12 -12 -12 -12 -12 -11 -11 -10 -10 -9 -9 -8 -8 -8 -7 -7 -6 -6 -6 -5 -5 -5 -5 -5 -5 -5 -5 -5 -6 -6 -6 -5 -5 -5 -5 -6
-13 -12 -12 -12 -12 -12 -11 -11 -10 -10 -10 -9 -9 -8 -8 -7 -7 -6 -6 -6 -6 -5 -5 -5 -5 -5 -6 -5 -6 -6 -6 -7 -7 -6 -6 -6 -6 -6

GFSNE_850_temp_276.txt.gz
Temp
13 12 12 12 11 10 10 8 8 8 10 12 11 10 9 10 10 10 10 10 11 10 10 11 11 10 11 11 11 11 11 11 11 11 11 10 10 9
11 11 11 11 10 10 10 9 8 6 6 10 9 7 7 8 8 9 9 10 10 10 10 10 10 10 11 10 10 11 11 11 10 10 10 10 10 9
9 9 9 10 9 9 8 7 7 7 5 6 6 5 7 7 8 8 8 8 7 9 10 10 9 10 10 11 10 10 10 10 10 10 10 10 10 9
9 8 8 8 6 5 4 3 5 5 5 4 6 6 6 3 3 5 5 5 4 5 8 9 9 9 9 10 10 10 10 10 10 10 9 9 9 9
8 8 7 6 5 5 3 1 -0 4 1 0 2 2 3 3 3 3 3 3 4 4 5 7 7 8 8 8 9 9 9 9 9 9 9 9 9 9
6 5 6 6 4 4 2 1 1 3 2 0 0 1 1 3 3 1 5 3 2 3 3 3 6 6 7 7 7 8 8 8 9 9 9 9 9 9
4 2 2 2 3 1 1 -0 0 -1 -2 -2 -1 -1 -1 -0 -1 0 -0 1 3 2 2 2 2 3 3 5 6 7 6 7 8 8 8 9 9 9
1 0 -3 -2 -2 -2 -1 0 -1 -3 -3 -4 -3 -3 -3 -3 -3 -2 -2 -2 -1 2 -0 3 2 1 2 2 4 4 5 6 6 7 8 8 8 8
-4 -5 -4 -4 -5 -5 -4 -5 -5 -5 -4 -4 -4 -4 -3 -3 -3 -3 -3 -3 -2 -2 -1 -1 0 1 1 1 4 4 4 5 5 5 6 7 8 8
-6 -6 -6 -6 -6 -6 -5 -6 -5 -5 -5 -5 -5 -4 -4 -4 -4 -5 -4 -4 -3 -2 -2 -1 -0 -0 0 -0 2 3 4 4 4 4 5 6 7 7
-7 -7 -6 -6 -6 -6 -6 -7 -7 -6 -5 -6 -6 -6 -6 -6 -5 -5 -5 -4 -4 -3 -2 -2 -1 -1 -1 0 0 1 1 1 2 3 4 4 5 6
-7 -8 -8 -7 -6 -6 -6 -8 -7 -7 -7 -6 -7 -6 -6 -6 -5 -5 -5 -4 -4 -4 -2 -2 -2 -1 -1 -1 -0 0 1 1 1 1 1 2 2 2
-8 -8 -8 -7 -7 -7 -8 -9 -9 -8 -9 -8 -7 -6 -6 -6 -5 -5 -5 -5 -4 -4 -4 -3 -3 -2 -2 -2 -1 -0 -0 0 0 0 1 1 1 1
-8 -8 -7 -7 -7 -7 -8 -8 -8 -9 -10 -9 -9 -8 -7 -6 -5 -5 -5 -5 -5 -5 -4 -4 -4 -3 -2 -2 -2 -2 -1 -1 -1 -1 -1 -0 0 0
-8 -8 -8 -8 -11 -11 -10 -11 -11 -11 -11 -10 -10 -9 -9 -8 -7 -6 -5 -5 -5 -5 -5 -4 -4 -3 -3 -2 -2 -2 -2 -1 -2 -2 -3 -2 -1 -1
-8 -9 -10 -11 -12 -12 -12 -12 -12 -12 -12 -11 -11 -11 -10 -9 -7 -6 -6 -5 -5 -5 -4 -4 -4 -3 -3 -3 -3 -3 -3 -3 -2 -3 -3 -3 -3 -2
-10 -12 -12 -12 -12 -12 -12 -12 -12 -12 -12 -12 -12 -11 -10 -9 -8 -7 -6 -6 -5 -5 -5 -4 -4 -4 -3 -3 -3 -3 -3 -3 -3 -4 -4 -4 -4 -2
-12 -12 -12 -13 -13 -13 -13 -13 -13 -13 -13 -13 -12 -12 -11 -10 -8 -6 -6 -6 -5 -5 -5 -5 -4 -4 -4 -3 -3 -3 -3 -4 -4 -4 -5 -4 -4 -3
-10 -12 -13 -14 -14 -14 -14 -14 -14 -13 -12 -13 -12 -11 -10 -9 -8 -7 -6 -5 -5 -5 -5 -5 -5 -4 -4 -4 -3 -3 -4 -4 -4 -4 -4 -4 -4 -4
-14 -14 -15 -15 -15 -15 -15 -15 -14 -12 -12 -11 -11 -11 -11 -11 -9 -8 -7 -6 -5 -5 -5 -5 -5 -5 -4 -4 -3 -4 -4 -4 -4 -4 -5 -5 -4 -4
-15 -15 -15 -15 -15 -15 -14 -13 -12 -12 -12 -13 -12 -11 -10 -11 -9 -8 -8 -7 -6 -5 -5 -5 -5 -5 -5 -4 -5 -5 -5 -4 -5 -5 -5 -5 -5 -5
-16 -15 -14 -13 -13 -13 -13 -12 -12 -12 -12 -12 -11 -11 -10 -10 -9 -9 -8 -7 -6 -5 -5 -5 -5 -5 -5 -5 -5 -4 -5 -6 -5 -5 -5 -5 -6 -5
-13 -12 -12 -12 -12 -12 -12 -12 -11 -11 -12 -12 -11 -10 -9 -8 -8 -8 -7 -6 -5 -6 -5 -5 -5 -5 -5 -5 -5 -5 -6 -7 -7 -7 -6 -6 -6 -6

GFSNE_850_temp_279.txt.gz
Temp
10 10 9 11 11 11 11 11 10 9 11 13 13 12 9 9 9 10 10 8 9 9 10 10 11 10 10 10 11 11 11 12 12 13 11 11 11 10
11 11 10 10 11 11 10 9 8 7 8 10 10 9 7 7 6 8 8 9 7 7 9 10 10 9 9 10 10 11 11 11 11 11 10 11 10 10
9 8 9 8 7 7 6 5 5 6 5 6 7 6 5 5 5 5 6 6 6 6 7 9 10 10 9 10 9 10 10 11 11 10 11 10 10 10
8 9 8 5 5 4 3 3 3 3 2 3 4 4 4 4 4 6 6 5 5 5 6 7 9 9 9 9 9 9 9 10 10 11 11 10 10 10
7 8 7 6 5 4 2 2 1 2 1 2 2 3 3 2 4 4 3 4 3 4 4 4 4 7 8 7 8 8 9 9 9 9 10 10 10 10
4 5 5 5 4 5 3 -0 -1 -1 -1 -1 -1 0 0 1 1 1 3 3 2 3 4 4 4 4 4 5 5 7 7 8 8 9 9 9 9 9
2 3 4 2 1 0 1 0 1 -1 -2 -2 -2 -2 -2 -1 -2 -2 -2 -1 0 3 3 2 2 3 3 3 3 4 5 6 7 7 8 8 9 9
-1 1 -1 -3 -3 -3 2 -1 -3 -4 -4 -4 -4 -3 -3 -3 -3 -3 -2 -3 -3 1 -0 1 0 1 3 2 2 3 3 4 5 6 7 7 8 8
-4 -4 -4 -4 -4 -3 -2 -2 -3 -4 -4 -4 -5 -5 -4 -4 -4 -4 -4 -4 -3 -3 -3 -2 -1 -0 1 2 1 2 2 3 4 5 5 6 7 7
-5 -5 -5 -7 -5 -5 -4 -5 -6 -5 -5 -5 -5 -5 -5 -5 -5 -5 -5 -5 -4 -4 -3 -3 -2 -1 -0 -0 0 0 1 2 3 4 4 5 5 6
-5 -6 -6 -7 -6 -6 -6 -8 -7 -6 -7 -5 -5 -5 -5 -5 -6 -6 -6 -5 -5 -4 -3 -3 -3 -2 -1 -0 -0 -0 0 1 0 1 2 3 3 4
-6 -7 -8 -7 -6 -6 -7 -9 -8 -9 -7 -7 -7 -6 -6 -5 -5 -5 -5 -5 -4 -4 -4 -3 -2 -2 -1 -1 -1 -1 -1 0 0 1 1 1 1 2
-8 -8 -9 -6 -6 -7 -8 -10 -10 -9 -10 -9 -9 -8 -8 -7 -6 -6 -5 -4 -4 -4 -4 -4 -4 -3 -3 -3 -2 -1 -1 -1 -0 0 0 1 1 1
-8 -9 -7 -6 -7 -9 -11 -10 -10 -10 -10 -10 -10 -9 -9 -9 -8 -7 -7 -6 -5 -5 -4 -5 -5 -4 -4 -3 -3 -2 -2 -1 -1 -1 -1 -0 0 0
-7 -9 -11 -11 -11 -11 -11 -11 -11 -11 -11 -11 -10 -10 -10 -10 -9 -8 -7 -6 -5 -5 -5 -5 -5 -5 -5 -4 -4 -3 -2 -2 -2 -2 -1 -1 -2 -1
-9 -10 -11 -11 -11 -11 -11 -11 -11 -11 -11 -11 -11 -11 -10 -10 -9 -8 -7 -6 -6 -5 -4 -4 -5 -5 -5 -4 -4 -3 -3 -3 -2 -2 -2 -2 -3 -3
-9 -11 -11 -12 -12 -12 -12 -12 -12 -12 -12 -12 -12 -11 -11 -10 -10 -9 -8 -7 -6 -5 -5 -5 -5 -5 -4 -4 -4 -3 -3 -2 -3 -3 -3 -3 -3 -3
-11 -12 -12 -12 -12 -12 -12 -12 -12 -12 -12 -12 -12 -12 -11 -11 -10 -10 -9 -8 -7 -6 -5 -5 -5 -4 -4 -4 -4 -4 -3 -3 -3 -3 -4 -4 -4 -3
-12 -12 -13 -13 -13 -13 -13 -13 -13 -13 -13 -13 -13 -12 -12 -11 -11 -11 -10 -9 -8 -7 -6 -5 -5 -4 -5 -4 -4 -3 -4 -4 -3 -4 -4 -4 -4 -3
-13 -13 -14 -14 -14 -14 -14 -14 -14 -13 -13 -13 -13 -13 -13 -13 -12 -11 -11 -10 -9 -8 -7 -5 -5 -5 -5 -4 -4 -3 -3 -4 -4 -4 -5 -4 -4 -5
-14 -14 -15 -15 -15 -15 -15 -15 -15 -14 -14 -13 -13 -13 -13 -13 -12 -11 -11 -10 -10 -9 -7 -6 -5 -5 -5 -5 -5 -4 -4 -4 -5 -5 -5 -5 -5 -5
-15 -15 -15 -15 -15 -16 -15 -15 -13 -12 -13 -12 -12 -12 -11 -11 -11 -10 -10 -10 -8 -8 -7 -5 -5 -5 -5 -5 -4 -4 -4 -5 -5 -5 -5 -5 -6 -5
-14 -14 -14 -15 -15 -16 -14 -13 -13 -13 -12 -12 -12 -11 -11 -10 -9 -9 -9 -8 -7 -6 -5 -5 -5 -5 -5 -5 -5 -4 -5 -5 -6 -6 -6 -6 -5 -5

GFSNE_850_temp_285.txt.gz
Temp
13 13 13 13 12 13 13 13 13 11 9 7 7 6 8 9 9 10 11 10 11 10 9 8 8 9 10 11 10 10 10 10 10 10 11 11 11 11
7 8 6 7 8 10 11 11 11 12 9 7 5 5 7 7 8 8 8 8 8 6 6 5 7 8 8 10 10 10 10 9 9 10 10 11 11 11
4 6 6 7 4 3 4 6 7 9 9 6 6 7 7 6 6 6 6 6 6 6 6 6 7 8 6 7 9 9 8 9 9 9 10 10 10 10
1 1 2 3 2 2 2 3 5 5 5 5 6 5 6 6 6 6 5 5 5 6 5 5 4 4 3 5 7 8 8 8 7 8 9 9 9 10
-1 0 0 1 1 0 1 2 4 4 3 2 2 3 3 4 5 5 5 5 5 5 5 5 5 4 4 3 4 5 5 6 7 7 7 8 9 9
-1 -1 -1 -0 0 1 1 1 1 2 1 1 1 1 1 1 1 2 3 3 5 5 4 4 4 4 3 3 3 4 2 3 4 6 6 7 8 8
-3 -3 -4 -3 -3 -2 -0 -0 -1 0 1 0 -0 -0 1 -0 -1 -1 -0 0 1 2 2 3 2 3 3 2 2 3 3 2 2 4 5 6 7 8
-5 -5 -2 -1 -1 -1 -2 -4 -6 -5 -4 -4 -4 -4 -4 -4 -4 -4 -4 -3 -3 -1 -2 1 -1 2 3 3 2 1 0 0 0 2 4 5 5 6
-5 -5 -4 -4 -3 -3 -3 -3 -3 -3 -4 -5 -5 -6 -5 -5 -5 -5 -5 -5 -5 -4 -4 -4 -2 -3 -1 -0 -0 -1 -1 -1 -1 -0 2 4 5 5
-6 -6 -5 -5 -5 -5 -5 -5 -5 -5 -5 -6 -6 -6 -6 -6 -7 -7 -7 -7 -6 -6 -5 -5 -4 -4 -3 -3 -2 -2 -1 -0 -1 -1 0 2 3 3
-8 -7 -7 -7 -8 -7 -6 -6 -6 -6 -6 -6 -6 -6 -6 -6 -7 -7 -6 -7 -7 -7 -6 -6 -5 -5 -4 -4 -3 -2 -1 -1 -2 -1 -1 -1 -1 0
-8 -8 -10 -10 -10 -9 -8 -7 -7 -7 -6 -5 -5 -6 -6 -6 -6 -8 -8 -8 -8 -9 -5 -7 -6 -6 -6 -4 -3 -3 -3 -2 -2 -1 -1 -2 -2 -1
-8 -9 -10 -10 -10 -10 -9 -9 -9 -8 -7 -7 -6 -6 -6 -6 -6 -6 -7 -9 -9 -9 -7 -8 -8 -7 -6 -6 -5 -4 -3 -2 -2 -3 -2 -2 -1 -1
-9 -10 -10 -9 -9 -9 -8 -9 -8 -8 -7 -7 -7 -7 -6 -6 -6 -6 -7 -7 -8 -9 -8 -7 -8 -7 -6 -6 -6 -5 -5 -3 -3 -3 -3 -3 -2 -2
-10 -10 -9 -9 -9 -9 -9 -9 -9 -9 -9 -8 -8 -8 -8 -7 -7 -6 -6 -6 -5 -6 -7 -7 -8 -7 -7 -6 -6 -6 -6 -6 -4 -3 -3 -3 -2 -2
-9 -9 -8 -8 -9 -9 -9 -9 -9 -9 -10 -10 -10 -9 -9 -9 -9 -9 -8 -7 -6 -4 -6 -6 -7 -8 -7 -7 -6 -6 -5 -6 -5 -5 -4 -4 -3 -3
-10 -9 -8 -8 -8 -8 -8 -9 -9 -9 -9 -9 -9 -9 -9 -9 -9 -9 -9 -9 -9 -7 -5 -5 -6 -7 -7 -7 -7 -6 -5 -5 -5 -5 -5 -5 -4 -3
-8 -9 -10 -11 -11 -11 -10 -9 -10 -10 -10 -10 -11 -11 -11 -11 -10 -9 -10 -10 -10 -9 -8 -7 -6 -6 -5 -4 -5 -5 -5 -4 -4 -4 -5 -5 -4 -4
-10 -11 -12 -12 -12 -12 -12 -11 -11 -11 -11 -11 -11 -11 -12 -12 -11 -11 -11 -11 -9 -9 -8 -8 -8 -8 -10 -9 -5 -5 -5 -5 -5 -4 -4 -5 -5 -4
-11 -12 -13 -14 -14 -13 -13 -12 -12 -12 -11 -11 -11 -11 -11 -11 -10 -10 -10 -10 -9 -8 -6 -6 -6 -7 -9 -8 -8 -5 -5 -5 -5 -5 -5 -4 -4 -4
-13 -13 -13 -14 -13 -13 -13 -12 -12 -11 -11 -10 -10 -10 -11 -11 -9 -9 -8 -8 -8 -8 -7 -6 -6 -6 -6 -6 -6 -6 -5 -5 -5 -5 -5 -4 -4 -4
-12 -12 -12 -13 -13 -13 -12 -12 -11 -10 -10 -10 -10 -10 -10 -9 -9 -8 -8 -8 -7 -8 -7 -6 -5 -5 -6 -5 -5 -5 -5 -5 -5 -5 -5 -5 -5 -5
-13 -13 -13 -13 -14 -14 -13 -12 -12 -12 -12 -11 -10 -9 -9 -8 -8 -8 -8 -7 -7 -6 -6 -6 -5 -5 -5 -5 -5 -5 -5 -5 -5 -5 -5 -5 -6 -6